Location: Petruro
(41.0333°N, 14.7833°E)
Time: 09:24:56
(UTC+00:00)

Cosmos 1809 Rocket - Pass Details

Date: 20 June 2021
Orbit: 941 x 963 km, 82.5° (Epoch: 26 July)

Event Time Altitude Azimuth Distance (km) Brightness Sun altitude
Exits shadow 01:42:26 21° 200° (SSW) 1,987 5.5 -15.6°
Maximum altitude 01:46:37 68° 279° (W) 1,029 4.5 -15.1°
Drops below altitude 10° 01:52:49 10° 3° (N) 2,708 7.6 -14.4°
Sets 01:55:21 0° 6° (N) 3,659 8.5 -14.1°
